map of PMW home
PMW - Airport
Location
City:  Palmas, Tocantins, Brazil
Name:Tocantins
ICAO:SBPJ
IATA:PMW

Details
Type:Airport (Aerodrome, Airfield)
Use:Public/Civil
Latitude:1017'29"S (-10.291524)
Longitude:4821'25"W (-48.356971)
Datum:WGS 1984
Elevation:774 ft (236 m)
Variation:21.29W (WMM2015 magnetic declination)
-0.07 annual change
Runways:1
Longest:8185 × 148 ft (2495 × 45 m), paved

Time
Time Zone:UTC-3
Local Time:

Weather
METAR:SBPJ 242300Z 09006KT 9999 FEW045 27/22 Q1014
TAF:SBPJ 242000Z 2500/2512 11005KT 7000 FEW025 TN23/2506Z TX27/2511Z
BECMG 2506/2508 11005KT 7000 FEW035
RMK PDE

Related Locations
Nearby:
Farthest:ROR: 12157 mi / 19565 km
Babelthuap Island [Babelthuap/Koror Airport], PW

Find:

   beyond  
but within

Other Information
Maps:
NOTAMs:
Links:
Sources:

  
flag of Brazil
flag of Tocantins
  

Sectional Chart

Flight Planning
at skyvector.com

Satellite Image

Google Maps Satellite view

 

Copyright © 2004-2018 Karl L. Swartz. All rights reserved.
The Great Circle Mapper name and logo are trademarks of the Great Circle Mapper.
All other trademarks mentioned herein belong to their respective owners.
Please see credits for attibutions and further copyright information.

  Follow gcmap on Facebook Follow gcmap on Twitter Follow gcmap on Google+ GCmap on LinkedIn

hCard Microformat

Geo Microformat